Regional Weather Roundup
Issued by NWS

Home | Current Version | Previous Version | Graphics & Text | Print | Product List | Glossary On
Versions: 1 2 3 4 5 6 7 8 9 10 11 12 13 14 15 16 17 18 19 20 21 22 23 24 25 26 27
000
ASUS45 KBOI 030810
RWRID

IDAHO REGIONAL WEATHER ROUNDUP
NATIONAL WEATHER SERVICE BOISE ID
100 AM MST SAT DEC 03 2016

NOTE: "FAIR" INDICATES FEW OR NO CLOUDS BELOW 12000 FEET
WITH NO SIGNIFICANT WEATHER AND/OR OBSTRUCTIONS TO VISIBILITY

IDZ012-014-030900-
SOUTHWEST IDAHO


CITY           SKY/WX    TMP DP  RH WIND       PRES   REMARKS
BOISE          NOT AVBL
CALDWELL       CLOUDY    34  26  72 E9        30.29S WCI  27
MOUNTAIN HOME  CLOUDY    31  26  81 E9        30.27S WCI  23
$$

IDZ016-017-030900-
SOUTHCENTRAL IDAHO


CITY           SKY/WX    TMP DP  RH WIND       PRES   REMARKS
JEROME         NOT AVBL
TWIN FALLS     NOT AVBL
$$

IDZ019>023-030900-
SOUTHEAST IDAHO


CITY           SKY/WX    TMP DP  RH WIND       PRES   REMARKS
IDAHO FALLS    NOT AVBL
POCATELLO      NOT AVBL
REXBURG        NOT AVBL
$$

IDZ006-010-011-018-031-032-030900-
CENTRAL IDAHO MOUNTAINS


CITY           SKY/WX    TMP DP  RH WIND       PRES   REMARKS
MCCALL         CLOUDY    24  19  81 CALM      30.16F
HAILEY         CLOUDY    23  23 100 CALM      30.20F
STANLEY          N/A     23  15  71 CALM      30.14S
SALMON         CLOUDY    28  19  69 CALM      30.13F
CHALLIS        NOT AVBL
$$

IDZ002-004-006-007-026-030900-
NORTHERN IDAHO


CITY           SKY/WX    TMP DP  RH WIND       PRES   REMARKS
LEWISTON       NOT AVBL
LOWELL           N/A     36  33  89 CALM      30.18F
COEUR D`ALENE  LGT RAIN  33  32  96 SE7       30.04F WCI  27
MULLAN PASS    LGT SNOW  22  20  92 SW9G17    29.91F FOG     WCI  12
$$




USA.gov is the U.S. government's official web portal to all federal, state and local government web resources and services.